Home   Weather   Auckland   Past weeks
Flag for New Zealand

Past Weather in Auckland, New Zealand — August 2017

Now
64 °F

Sprinkles. Partly cloudy.


Feels Like: 64 °F
Forecast: 70 / 62 °F
Wind: 23 mph from Southwest

Location: Auckland Airport

Current Time: Feb 23, 2020 at 3:03:15 am

Latest Report: Feb 23, 2020 at 2:30 am


Visibility: N/A

Pressure: 29.98 "Hg

Humidity: 83%

Dew Point: 59 °F

Location of AucklandLocation

August 2017 Weather in Auckland — Graph

°F

High & Low Weather Summary for August 2017

 TemperatureHumidityPressure
High64 °F (Aug 7, 1:00 pm)100% (Aug 2, 2:30 am)30.42 "Hg (Aug 2, 2:30 am)
Low39 °F (Aug 5, 4:00 am)45% (Aug 24, 2:30 pm)29.09 "Hg (Aug 19, 2:30 pm)
Average54 °F86%29.95 "Hg
* Reported Aug 1 12:00 am — Aug 31 11:30 pm, Auckland. Weather by CustomWeather, © 2020

Note: Actual official high and low records may vary slightly from our data, if they occured in-between our weather recording intervals... More about our weather records

Auckland Weather History for August 1, 2017

Scroll right to see more
 ConditionsComfort  
Time TempWeatherWind HumidityBarometerVisibility
12:00 am
Tue, Aug 1
46 °FOvercast.5 mph87%30.33 "HgN/A
12:30 am46 °FOvercast.3 mph87%30.33 "HgN/A
1:00 am46 °FOvercast.3 mph87%30.33 "HgN/A
1:30 am46 °FOvercast.3 mph87%30.30 "HgN/A
2:00 am48 °FOvercast.5 mph82%30.30 "HgN/A
2:30 am48 °FOvercast.2 mph87%30.30 "HgN/A
3:00 am48 °FOvercast.3 mph87%30.27 "HgN/A
3:30 am48 °FOvercast.2 mph87%30.27 "HgN/A
4:00 am48 °FOvercast.1 mph87%30.27 "HgN/A
4:30 am50 °FOvercast.5 mph76%30.27 "HgN/A
5:00 am48 °FPassing clouds.5 mph82%30.27 "HgN/A
5:30 am48 °FPassing clouds.6 mph82%30.27 "HgN/A
6:00 am50 °FPassing clouds.7 mph76%30.27 "HgN/A
6:30 am50 °FPassing clouds.8 mph76%30.27 "HgN/A
7:00 am50 °FPassing clouds.7 mph76%30.27 "HgN/A
7:30 am50 °FOvercast.7 mph76%30.30 "HgN/A
8:00 am50 °FOvercast.7 mph76%30.30 "HgN/A
8:30 am52 °FOvercast.5 mph72%30.30 "HgN/A
9:00 am52 °FPartly sunny.6 mph77%30.30 "HgN/A
9:30 am52 °FPartly sunny.7 mph77%30.30 "HgN/A
10:00 am54 °FOvercast.7 mph77%30.30 "HgN/A
10:30 am54 °FPartly sunny.9 mph77%30.30 "HgN/A
11:00 am54 °FOvercast.9 mph77%30.30 "HgN/A
11:30 am55 °FOvercast.12 mph77%30.27 "HgN/A
12:00 pm55 °FOvercast.10 mph77%30.27 "HgN/A
12:30 pm57 °FPartly sunny.12 mph77%30.24 "HgN/A
1:00 pm57 °FOvercast.14 mph77%30.24 "HgN/A
1:30 pm59 °FOvercast.12 mph72%30.21 "HgN/A
2:00 pm61 °FBroken clouds.13 mph72%30.21 "HgN/A
2:30 pm59 °FPassing clouds.12 mph72%30.18 "HgN/A
3:00 pm61 °FPartly sunny.9 mph72%30.18 "HgN/A
3:30 pm61 °FBroken clouds.12 mph68%30.18 "HgN/A
4:00 pm61 °FPartly sunny.12 mph68%30.18 "HgN/A
4:30 pm59 °FPassing clouds.8 mph72%30.18 "HgN/A
5:00 pm59 °FPassing clouds.10 mph72%30.18 "HgN/A
5:30 pm57 °FCool.10 mph72%30.18 "HgN/A
6:00 pm55 °FCool.7 mph72%30.18 "HgN/A
6:30 pm55 °FCool.6 mph72%30.18 "HgN/A
7:00 pm54 °FPassing clouds.3 mph82%30.18 "HgN/A
7:30 pm54 °FCool.3 mph77%30.18 "HgN/A
8:00 pm55 °FCool.6 mph72%30.18 "HgN/A
8:30 pm54 °FCool.5 mph77%30.15 "HgN/A
9:00 pm54 °FCool.6 mph77%30.15 "HgN/A
9:30 pm54 °FCool.5 mph77%30.15 "HgN/A
10:00 pm50 °FCool.5 mph88%30.15 "HgN/A
10:30 pm50 °FPassing clouds.5 mph88%30.15 "HgN/A
11:00 pm50 °FPassing clouds.5 mph94%30.15 "HgN/A
11:30 pm50 °FCool.5 mph94%30.15 "HgN/A
Weather by CustomWeather, © 2020

See weather overview

Advertising